period_start,C,m1,H,J0,J1,J2,J3,J4,J5,JA,JB,JC,JD,JJ,JK,JN,#
2015-06-23 00:02:35,-0.01,0.01,0.00,24.12,27.70,30.19,4.70,26.00,1009.79,2036.13,3483.92,3313.99,3607.69,349.85,343.76,5.01,0000 0000 0000 0000 000000
2015-06-23 00:07:36,0.01,0.01,0.00,24.12,27.71,30.22,4.74,25.98,1009.79,2036.10,3483.94,3313.98,3607.48,350.36,344.44,5.04,0000 0000 0000 0000 000000
2015-06-23 00:12:38,-0.00,0.01,0.00,24.12,27.72,30.24,4.69,25.83,1009.78,2036.03,3483.75,3313.97,3607.12,349.48,343.65,5.07,0000 0000 0000 0000 000000
2015-06-23 00:17:39,-0.00,0.01,0.00,24.12,27.72,30.21,4.74,26.02,1009.78,2036.02,3483.55,3313.96,3607.06,350.29,344.50,5.10,0000 0000 0000 0000 000000
2015-06-23 00:22:40,0.02,0.01,0.00,24.14,27.72,30.22,4.70,25.91,1009.78,2036.01,3483.17,3313.84,3607.02,349.69,343.59,5.13,0000 0000 0000 0000 000000
2015-06-23 00:27:41,0.01,0.01,0.00,24.15,27.73,30.25,4.70,25.88,1009.78,2036.01,3483.05,3313.65,3607.00,350.08,344.15,5.16,0000 0000 0000 0000 000000
2015-06-23 00:32:43,-0.00,0.01,0.00,24.16,27.74,30.23,4.70,25.90,1009.74,2036.01,3483.02,3313.46,3607.00,350.24,344.10,5.18,0000 0000 0000 0000 000000
2015-06-23 00:37:44,0.01,0.01,0.00,24.17,27.75,30.22,4.77,26.01,1009.74,2036.00,3483.00,3313.11,3606.99,350.35,344.50,5.21,0000 0000 0000 0000 000000
2015-06-23 00:42:45,0.00,0.01,0.00,24.20,27.75,30.24,4.70,25.91,1009.76,2036.00,3483.00,3313.03,3606.97,350.23,344.03,5.24,0000 0000 0000 0000 000000
2015-06-23 00:47:46,0.00,0.01,0.00,24.21,27.75,30.25,4.72,25.85,1009.77,2036.00,3483.00,3313.06,3606.99,350.64,344.55,5.27,0000 0000 0000 0000 000000
2015-06-23 00:52:48,0.00,0.01,0.00,24.22,27.77,30.25,4.69,25.90,1009.78,2036.00,3482.99,3313.03,3606.96,349.76,343.47,5.30,0000 0000 0000 0000 000000
2015-06-23 00:57:49,0.00,0.01,0.00,24.23,27.77,30.25,4.72,25.82,1009.77,2036.00,3482.97,3313.00,3606.90,350.02,343.87,5.33,0000 0000 0000 0000 000000
2015-06-23 01:02:50,0.00,0.01,0.00,24.25,27.77,30.24,4.68,25.92,1009.75,2036.00,3482.96,3313.00,3606.86,349.99,343.91,5.36,0000 0000 0000 0000 000000
2015-06-23 01:07:51,0.01,0.01,0.00,24.26,27.77,30.25,4.67,25.82,1009.74,2036.00,3482.86,3313.00,3606.70,349.48,343.45,5.39,0000 0000 0000 0000 000000
2015-06-23 01:12:52,0.02,0.01,0.00,24.27,27.79,30.25,4.70,25.91,1009.62,2036.00,3482.67,3313.00,3606.39,350.24,344.02,5.42,0000 0000 0000 0000 000000
2015-06-23 01:17:53,0.00,0.01,0.00,24.28,27.80,30.25,4.73,25.94,1009.38,2036.00,3482.43,3312.99,3606.23,349.91,343.68,5.45,0000 0000 0000 0000 000000
2015-06-23 01:22:54,0.01,0.01,0.00,24.29,27.80,30.25,4.78,25.86,1009.32,2035.99,3482.18,3312.98,3606.10,350.02,343.70,5.48,0000 0000 0000 0000 000000
2015-06-23 01:27:55,0.00,0.01,0.00,24.29,27.80,30.28,4.70,25.80,1009.32,2035.99,3482.07,3312.98,3606.05,349.66,343.34,5.51,0000 0000 0000 0000 000000
2015-06-23 01:32:57,0.00,0.01,0.00,24.31,27.82,30.25,4.75,25.79,1009.31,2035.99,3482.01,3312.97,3606.02,350.43,344.09,5.54,0000 0000 0000 0000 000000
2015-06-23 01:37:58,0.01,0.01,0.00,24.33,27.82,30.25,4.72,25.93,1009.34,2035.99,3482.00,3312.83,3606.00,350.20,343.87,5.56,0000 0000 0000 0000 000000
2015-06-23 01:42:59,0.01,0.02,0.00,24.35,27.82,30.26,4.70,25.88,1009.37,2035.99,3481.99,3312.47,3605.99,350.08,343.85,5.59,0000 0000 0000 0000 000000
2015-06-23 01:48:00,0.01,0.02,0.00,24.36,27.84,30.26,4.73,25.82,1009.41,2035.99,3481.98,3312.35,3605.99,349.70,343.46,5.62,0000 0000 0000 0000 000000
2015-06-23 01:53:01,0.00,0.02,0.00,24.37,27.85,30.26,4.75,25.91,1009.42,2035.98,3481.98,3312.21,3605.99,349.80,343.40,5.65,0000 0000 0000 0000 000000
2015-06-23 01:58:03,0.00,0.02,0.00,24.38,27.85,30.27,4.65,25.93,1009.44,2035.99,3481.98,3312.31,3605.99,349.58,342.97,5.68,0000 0000 0000 0000 000000
2015-06-23 02:03:04,0.01,0.02,0.00,24.40,27.85,30.25,4.69,25.86,1009.45,2035.98,3481.95,3312.06,3605.98,349.80,343.35,5.71,0000 0000 0000 0000 000000
2015-06-23 02:08:05,0.00,0.02,0.00,24.40,27.87,30.26,4.63,25.87,1009.41,2035.97,3481.92,3312.03,3605.90,349.87,343.69,5.74,0000 0000 0000 0000 000000
2015-06-23 02:13:06,0.01,0.02,0.00,24.42,27.87,30.28,4.70,25.79,1009.33,2035.97,3481.67,3312.01,3605.71,349.84,343.24,5.77,0000 0000 0000 0000 000000
2015-06-23 02:18:08,0.01,0.02,0.00,24.44,27.88,30.27,4.70,25.83,1009.32,2035.96,3481.47,3312.00,3605.55,349.67,343.25,5.80,0000 0000 0000 0000 000000
2015-06-23 02:23:09,0.01,0.02,0.00,24.45,27.90,30.29,4.66,25.76,1009.31,2035.96,3481.16,3312.00,3605.23,349.48,342.90,5.83,0000 0000 0000 0000 000000
2015-06-23 02:28:10,0.00,0.02,0.00,24.47,27.90,30.29,4.72,25.88,1009.31,2035.95,3481.17,3312.00,3605.17,349.96,343.47,5.86,0000 0000 0000 0000 000000
2015-06-23 02:33:11,-0.00,0.02,0.00,24.48,27.91,30.30,4.71,25.68,1009.31,2035.93,3481.04,3312.00,3605.06,349.40,342.91,5.89,0000 0000 0000 0000 000000
2015-06-23 02:38:12,-0.01,0.02,0.00,24.50,27.92,30.31,4.65,25.96,1009.30,2035.86,3481.00,3311.98,3605.01,350.18,343.65,5.92,0000 0000 0000 0000 000000
2015-06-23 02:43:13,0.00,0.02,0.00,24.51,27.92,30.32,4.66,25.80,1009.32,2035.82,3481.00,3311.97,3605.00,349.54,342.96,5.95,0000 0000 0000 0000 000000
2015-06-23 02:48:14,-0.01,0.02,0.00,24.51,27.93,30.33,4.71,25.75,1009.32,2035.71,3480.99,3311.87,3605.00,350.08,343.51,5.97,0000 0000 0000 0000 000000
2015-06-23 02:53:16,-0.03,0.02,0.00,24.52,27.95,30.34,4.65,25.72,1009.35,2035.48,3480.95,3311.60,3604.97,349.60,343.22,6.00,0000 0000 0000 0000 000000
2015-06-23 02:58:17,0.01,0.02,0.00,24.54,27.95,30.34,4.66,25.87,1009.35,2035.36,3480.93,3311.36,3604.94,349.51,343.30,6.03,0000 0000 0000 0000 000000
2015-06-23 03:03:18,0.01,0.02,0.00,24.55,27.96,30.35,4.74,25.81,1009.34,2035.30,3480.63,3311.10,3604.89,349.82,343.15,6.06,0000 0000 0000 0000 000000
2015-06-23 03:08:20,-0.01,0.02,0.00,24.56,27.97,30.36,4.70,25.69,1009.35,2035.19,3480.36,3311.04,3604.64,349.90,343.37,6.09,0000 0000 0000 0000 000000
2015-06-23 03:13:21,0.01,0.02,0.00,24.59,27.98,30.36,4.73,25.72,1009.34,2035.14,3480.13,3311.01,3604.34,350.22,343.57,6.12,0000 0000 0000 0000 000000
2015-06-23 03:18:22,-0.01,0.02,0.00,24.60,27.99,30.37,4.69,25.94,1009.31,2035.07,3480.03,3311.00,3604.13,349.48,342.91,6.15,0000 0000 0000 0000 000000
2015-06-23 03:23:23,0.00,0.02,0.00,24.61,28.00,30.38,4.69,25.66,1009.36,2035.04,3480.01,3310.99,3604.02,350.04,343.34,6.18,0000 0000 0000 0000 000000
2015-06-23 03:28:24,0.00,0.02,0.00,24.62,28.01,30.39,4.72,25.81,1009.34,2035.03,3480.00,3310.98,3604.01,350.65,344.13,6.21,0000 0000 0000 0000 000000
2015-06-23 03:33:25,-0.00,0.02,0.00,24.62,28.02,30.41,4.72,25.69,1009.32,2035.01,3480.00,3310.97,3604.00,350.46,343.77,6.24,0000 0000 0000 0000 000000
2015-06-23 03:38:27,0.00,0.02,0.00,24.64,28.02,30.40,4.72,25.98,1009.32,2035.00,3479.95,3310.90,3603.99,349.82,343.05,6.27,0000 0000 0000 0000 000000
2015-06-23 03:43:28,0.01,0.02,0.00,24.67,28.05,30.41,4.72,25.68,1009.32,2035.00,3479.90,3310.61,3603.98,349.92,342.90,6.30,0000 0000 0000 0000 000000
2015-06-23 03:48:30,0.02,0.02,0.00,24.67,28.05,30.43,4.67,25.78,1009.33,2035.00,3479.73,3310.33,3603.92,350.29,343.42,6.33,0000 0000 0000 0000 000000
2015-06-23 03:53:31,0.03,0.02,0.00,24.67,28.06,30.45,4.73,25.70,1009.35,2035.00,3479.24,3310.11,3603.71,350.18,343.08,6.36,0000 0000 0000 0000 000000
2015-06-23 03:58:32,0.00,0.02,0.00,24.69,28.07,30.45,4.72,25.70,1009.34,2035.00,3479.16,3310.06,3603.44,350.24,343.51,6.39,0000 0000 0000 0000 000000
2015-06-23 04:03:33,0.00,0.02,0.00,24.70,28.08,30.46,4.72,25.74,1009.34,2035.00,3479.12,3310.04,3603.28,349.44,342.74,6.41,0000 0000 0000 0000 000000
2015-06-23 04:08:34,0.01,0.02,0.00,24.71,28.10,30.47,4.65,25.63,1009.40,2035.00,3479.02,3310.01,3603.06,350.21,343.36,6.44,0000 0000 0000 0000 000000
2015-06-23 04:13:36,0.00,0.02,0.00,24.72,28.10,30.48,4.73,25.62,1009.38,2035.00,3479.00,3310.00,3603.01,350.29,343.60,6.47,0000 0000 0000 0000 000000
2015-06-23 04:18:37,-0.00,0.02,0.00,24.72,28.12,30.49,4.64,25.73,1009.42,2034.99,3479.00,3310.00,3603.01,349.66,342.96,6.50,0000 0000 0000 0000 000000
2015-06-23 04:23:38,0.00,0.02,0.00,24.74,28.12,30.50,4.71,25.69,1009.36,2034.99,3478.96,3309.99,3603.00,349.95,343.06,6.53,0000 0000 0000 0000 000000
2015-06-23 04:28:40,0.00,0.02,0.00,24.74,28.13,30.51,4.69,25.68,1009.39,2034.99,3478.94,3309.98,3602.98,349.80,343.00,6.56,0000 0000 0000 0000 000000
2015-06-23 04:33:41,0.00,0.02,0.00,24.75,28.15,30.52,4.71,25.72,1009.35,2034.98,3478.83,3309.94,3602.97,349.95,343.01,6.59,0000 0000 0000 0000 000000
2015-06-23 04:38:42,0.04,0.02,0.00,24.77,28.15,30.52,4.70,25.77,1009.32,2034.96,3478.27,3309.62,3602.69,350.03,343.08,6.62,0000 0000 0000 0000 000000
2015-06-23 04:43:43,0.03,0.02,0.00,24.78,28.17,30.53,4.72,25.74,1009.31,2034.96,3478.02,3309.10,3602.27,350.07,343.11,6.65,0000 0000 0000 0000 000000
2015-06-23 04:48:44,0.00,0.02,0.00,24.79,28.17,30.55,4.69,25.64,1009.31,2034.95,3478.01,3309.03,3602.06,350.41,343.58,6.68,0000 0000 0000 0000 000000
2015-06-23 04:53:45,-0.02,0.02,0.00,24.80,28.18,30.55,4.70,25.66,1009.30,2034.83,3478.00,3309.00,3602.01,350.20,343.50,6.71,0000 0000 0000 0000 000000
2015-06-23 04:58:46,-0.02,0.02,0.00,24.80,28.20,30.57,4.67,25.66,1009.30,2034.67,3478.00,3309.00,3602.00,349.48,342.61,6.74,0000 0000 0000 0000 000000
2015-06-23 05:03:48,-0.07,0.02,0.00,24.80,28.20,30.58,4.76,25.61,1009.30,2034.32,3477.96,3309.00,3601.99,350.94,343.79,6.77,0000 0000 0000 0000 000000
2015-06-23 05:08:49,0.01,0.02,0.00,24.82,28.22,30.59,4.66,25.67,1009.30,2034.30,3477.74,3308.97,3601.97,349.77,342.80,6.79,0000 0000 0000 0000 000000
2015-06-23 05:13:50,0.00,0.02,0.00,24.84,28.22,30.60,4.68,25.62,1009.29,2034.09,3477.24,3308.91,3601.76,350.08,343.19,6.82,0000 0000 0000 0000 000000
2015-06-23 05:18:52,0.02,0.02,0.00,24.85,28.24,30.61,4.70,25.71,1009.29,2034.04,3477.05,3308.54,3601.26,350.06,343.23,6.85,0000 0000 0000 0000 000000
2015-06-23 05:23:53,0.02,0.02,0.00,24.85,28.25,30.62,4.64,25.67,1009.29,2034.01,3477.01,3308.13,3601.04,349.22,342.40,6.88,0000 0000 0000 0000 000000
2015-06-23 05:28:54,0.00,0.02,0.00,24.86,28.26,30.63,4.67,25.59,1009.30,2034.01,3477.00,3308.06,3601.01,350.02,343.00,6.91,0000 0000 0000 0000 000000
2015-06-23 05:33:55,-0.00,0.02,0.00,24.87,28.27,30.65,4.79,25.77,1009.30,2034.01,3477.00,3308.02,3601.00,350.49,343.57,6.94,0000 0000 0000 0000 000000
2015-06-23 05:38:57,0.00,0.02,0.00,24.86,28.28,30.66,4.74,25.91,1009.30,2034.00,3476.95,3308.00,3600.99,350.50,343.48,6.97,0000 0000 0000 0000 000000
2015-06-23 05:43:58,0.00,0.02,0.00,24.87,28.30,30.66,4.74,25.77,1009.31,2034.00,3476.82,3308.00,3600.94,349.95,342.69,7.00,0000 0000 0000 0000 000000
2015-06-23 05:48:59,0.00,0.02,0.00,24.87,28.30,30.67,4.72,25.65,1009.33,2034.00,3476.80,3308.00,3600.97,350.54,343.50,7.03,0000 0000 0000 0000 000000
2015-06-23 05:54:00,0.02,0.02,0.00,24.87,28.32,30.69,4.67,25.77,1009.44,2034.00,3476.24,3307.98,3600.75,349.96,342.92,7.06,0000 0000 0000 0000 000000
2015-06-23 05:59:01,0.02,0.02,0.00,24.89,28.32,30.70,4.70,25.73,1009.51,2033.99,3476.00,3307.72,3600.19,350.07,343.00,7.09,0000 0000 0000 0000 000000
2015-06-23 06:04:03,0.01,0.02,0.00,24.91,28.33,30.71,4.71,25.73,1009.50,2033.99,3475.99,3307.52,3600.09,350.30,342.99,7.12,0000 0000 0000 0000 000000
2015-06-23 06:09:04,0.01,0.02,0.00,24.90,28.35,30.71,4.65,25.57,1009.42,2033.99,3475.98,3307.17,3600.01,350.04,343.09,7.15,0000 0000 0000 0000 000000
2015-06-23 06:14:05,0.00,0.02,0.00,24.91,28.35,30.72,4.72,25.77,1009.32,2033.99,3475.92,3307.06,3600.00,349.83,342.77,7.18,0000 0000 0000 0000 000000
2015-06-23 06:19:06,0.01,0.02,0.00,24.93,28.37,30.73,4.68,25.72,1009.32,2033.99,3475.61,3307.01,3600.00,350.11,343.17,7.20,0000 0000 0000 0000 000000
2015-06-23 06:24:08,0.01,0.02,0.00,24.94,28.37,30.76,4.71,25.72,1009.32,2033.98,3475.10,3307.00,3599.98,350.10,343.04,7.23,0000 0000 0000 0000 000000
2015-06-23 06:29:09,0.01,0.02,0.00,24.95,28.38,30.75,4.67,25.64,1009.32,2033.98,3475.01,3306.99,3599.85,349.06,342.15,7.26,0000 0000 0000 0000 000000
2015-06-23 06:34:10,0.01,0.02,0.00,24.95,28.40,30.77,4.71,25.58,1009.31,2033.98,3475.00,3306.98,3599.52,349.97,343.13,7.29,0000 0000 0000 0000 000000
2015-06-23 06:39:12,0.01,0.02,0.00,24.95,28.40,30.77,4.68,25.86,1009.31,2033.98,3474.98,3306.86,3599.17,349.98,343.08,7.32,0000 0000 0000 0000 000000
2015-06-23 06:44:13,0.01,0.02,0.00,24.95,28.41,30.78,4.67,25.57,1009.31,2033.98,3474.96,3306.71,3599.03,349.92,342.79,7.35,0000 0000 0000 0000 000000
2015-06-23 06:49:14,0.02,0.02,0.00,24.95,28.42,30.79,4.68,25.59,1009.31,2033.98,3474.90,3306.48,3599.01,349.97,342.79,7.38,0000 0000 0000 0000 000000
2015-06-23 06:54:16,0.01,0.02,0.00,24.97,28.42,30.80,4.71,25.66,1009.29,2033.97,3474.69,3306.30,3599.00,350.14,343.18,7.41,0000 0000 0000 0000 000000
2015-06-23 06:59:17,0.02,0.02,0.00,24.97,28.44,30.82,4.62,25.54,1009.29,2033.96,3474.33,3306.11,3599.00,349.97,342.89,7.44,0000 0000 0000 0000 000000
2015-06-23 07:04:18,0.00,0.03,0.00,24.98,28.45,30.82,4.71,25.62,1009.29,2033.94,3474.02,3306.01,3598.99,350.22,343.10,7.47,0000 0000 0000 0000 000000
2015-06-23 07:09:19,0.00,0.03,0.00,25.00,28.46,30.82,4.72,25.68,1009.29,2033.96,3474.00,3306.01,3598.96,349.98,342.85,7.50,0000 0000 0000 0000 000000
2015-06-23 07:14:20,-0.01,0.03,0.00,25.01,28.47,30.83,4.64,25.63,1009.27,2033.88,3474.00,3306.00,3598.69,348.92,342.12,7.53,0000 0000 0000 0000 000000
2015-06-23 07:19:21,-0.02,0.02,0.00,25.03,28.47,30.84,4.71,25.63,1009.26,2033.68,3473.99,3305.98,3598.12,350.29,343.12,7.56,0000 0000 0000 0000 000000
2015-06-23 07:24:23,-0.06,0.02,0.00,25.05,28.49,30.84,4.63,25.63,1009.28,2033.34,3473.96,3305.95,3598.01,349.94,342.68,7.59,0000 0000 0000 0000 000000
2015-06-23 07:29:24,0.03,0.02,0.00,25.07,28.50,30.85,4.68,25.68,1009.28,2033.18,3473.52,3305.67,3598.00,350.41,343.11,7.61,0000 0000 0000 0000 000000
2015-06-23 07:34:25,0.00,0.02,0.00,25.09,28.51,30.85,4.71,25.56,1009.25,2033.11,3473.29,3305.41,3597.99,350.12,342.84,7.64,0000 0000 0000 0000 000000
2015-06-23 07:39:26,0.01,0.02,0.00,25.13,28.52,30.86,4.70,25.91,1009.13,2033.07,3473.07,3305.14,3597.93,350.16,342.81,7.67,0000 0000 0000 0000 000000
2015-06-23 07:44:28,0.01,0.02,0.00,25.16,28.54,30.87,4.71,25.63,1009.01,2033.03,3473.01,3305.01,3597.63,349.70,342.29,7.70,0000 0000 0000 0000 000000
2015-06-23 07:49:29,0.00,0.02,0.00,25.18,28.55,30.88,4.66,25.61,1008.86,2033.01,3473.00,3305.00,3597.19,349.83,342.52,7.73,0000 0000 0000 0000 000000
2015-06-23 07:54:30,0.00,0.02,0.00,25.20,28.57,30.89,4.64,25.55,1008.84,2033.00,3472.99,3305.00,3597.02,349.86,342.24,7.76,0000 0000 0000 0000 000000
2015-06-23 07:59:31,0.00,0.02,0.00,25.22,28.58,30.90,4.69,25.62,1008.82,2033.00,3472.96,3304.99,3597.00,349.81,342.11,7.79,0000 0000 0000 0000 000000
2015-06-23 08:04:32,0.00,0.02,0.00,25.25,28.60,30.92,4.73,25.62,1008.80,2033.00,3472.85,3304.96,3597.00,350.12,342.39,7.82,0000 0000 0000 0000 000000
2015-06-23 08:09:34,0.02,0.03,0.00,25.26,28.61,30.94,4.68,25.62,1008.80,2033.00,3472.31,3304.73,3596.94,350.48,342.88,7.85,0000 0000 0000 0000 000000
2015-06-23 08:14:35,0.05,0.03,0.00,25.28,28.63,30.95,4.68,25.53,1008.80,2032.99,3472.02,3304.15,3596.26,350.53,342.85,7.88,0000 0000 0000 0000 000000
2015-06-23 08:19:36,0.00,0.03,0.00,25.30,28.65,30.97,4.75,25.63,1008.80,2032.98,3471.99,3304.01,3596.02,350.41,342.69,7.91,0000 0000 0000 0000 000000
2015-06-23 08:24:38,-0.00,0.03,0.00,25.31,28.67,30.99,4.65,25.68,1008.80,2032.97,3471.97,3304.00,3596.00,349.51,342.00,7.94,0000 0000 0000 0000 000000
2015-06-23 08:29:39,0.01,0.03,0.00,25.35,28.68,31.01,4.70,25.70,1008.80,2032.96,3471.59,3303.98,3595.99,349.81,342.03,7.97,0000 0000 0000 0000 000000
2015-06-23 08:34:40,0.01,0.03,0.00,25.37,28.70,31.03,4.61,25.57,1008.80,2032.92,3471.15,3303.91,3595.86,349.70,341.99,8.00,0000 0000 0000 0000 000000
2015-06-23 08:39:41,-0.02,0.03,0.00,25.40,28.72,31.04,4.63,25.78,1008.80,2032.54,3471.00,3303.29,3595.12,349.90,342.14,8.03,0000 0000 0000 0000 000000
2015-06-23 08:44:43,-0.03,0.03,0.00,25.42,28.74,31.06,4.68,25.66,1008.80,2032.22,3470.98,3303.01,3595.00,350.02,342.23,8.05,0000 0000 0000 0000 000000
2015-06-23 08:49:44,-0.01,0.03,0.00,25.43,28.76,31.08,4.75,25.57,1008.80,2032.09,3470.95,3303.00,3595.00,350.65,342.78,8.08,0000 0000 0000 0000 000000
2015-06-23 08:54:45,0.01,0.03,0.00,25.46,28.77,31.10,4.68,25.73,1008.81,2032.00,3470.42,3303.00,3594.87,349.89,342.09,8.11,0000 0000 0000 0000 000000
2015-06-23 08:59:46,0.02,0.03,0.00,25.47,28.80,31.12,4.64,25.68,1008.82,2032.01,3470.04,3302.93,3594.53,349.42,341.68,8.14,0000 0000 0000 0000 000000
2015-06-23 09:04:48,0.03,0.03,0.00,25.49,28.81,31.15,4.77,25.78,1008.81,2032.01,3469.99,3302.58,3594.17,350.63,342.90,8.17,0000 0000 0000 0000 000000
2015-06-23 09:09:49,0.02,0.03,0.00,25.51,28.83,31.16,4.66,25.67,1008.80,2032.00,3469.75,3302.04,3594.00,349.43,341.63,8.20,0000 0000 0000 0000 000000
2015-06-23 09:14:50,0.01,0.03,0.00,25.53,28.85,31.19,4.69,25.63,1008.82,2032.00,3469.48,3302.00,3593.98,349.68,341.83,8.23,0000 0000 0000 0000 000000
2015-06-23 09:19:51,0.01,0.03,0.00,25.55,28.87,31.20,4.67,25.68,1008.95,2032.00,3469.06,3302.00,3593.87,350.08,342.37,8.26,0000 0000 0000 0000 000000
2015-06-23 09:24:52,0.01,0.03,0.00,25.56,28.89,31.22,4.67,25.69,1009.15,2032.00,3469.00,3301.93,3593.29,349.87,342.21,8.29,0000 0000 0000 0000 000000
2015-06-23 09:29:53,0.03,0.03,0.00,25.57,28.90,31.24,4.68,25.56,1008.95,2031.99,3468.96,3301.46,3593.02,350.02,342.05,8.32,0000 0000 0000 0000 000000
2015-06-23 09:34:54,0.01,0.03,0.00,25.58,28.92,31.26,4.66,25.64,1008.84,2031.99,3468.87,3301.17,3593.00,349.71,341.76,8.35,0000 0000 0000 0000 000000
2015-06-23 09:39:55,0.02,0.03,0.00,25.59,28.94,31.28,4.64,25.77,1009.07,2031.96,3468.20,3301.02,3592.99,349.92,341.86,8.38,0000 0000 0000 0000 000000
2015-06-23 09:44:56,-0.01,0.03,0.00,25.61,28.95,31.31,4.65,25.50,1009.20,2031.91,3468.12,3301.00,3592.90,349.67,341.86,8.41,0000 0000 0000 0000 000000
2015-06-23 09:49:58,0.01,0.03,0.00,25.62,28.97,31.32,4.70,25.63,1009.09,2031.85,3468.01,3301.00,3592.54,349.98,341.87,8.43,0000 0000 0000 0000 000000
2015-06-23 09:54:59,-0.02,0.03,0.00,25.62,29.00,31.34,4.76,25.73,1009.13,2031.71,3468.00,3300.98,3592.17,349.98,342.11,8.46,0000 0000 0000 0000 000000
2015-06-23 10:00:00,-0.00,0.03,0.00,25.64,29.00,31.35,4.71,25.63,1008.89,2031.48,3467.97,3300.94,3592.02,349.91,342.04,8.49,0000 0000 0000 0000 000000
2015-06-23 10:05:01,-0.01,0.03,0.00,25.64,29.02,31.37,4.71,25.63,1008.82,2031.36,3467.81,3300.65,3592.01,350.28,342.13,8.52,0000 0000 0000 0000 000000
2015-06-23 10:10:03,-0.02,0.03,0.00,25.65,29.04,31.39,4.66,25.67,1008.81,2031.19,3467.65,3300.27,3591.99,350.10,342.06,8.55,0000 0000 0000 0000 000000
2015-06-23 10:15:04,0.03,0.03,0.00,25.66,29.05,31.41,4.72,25.62,1008.82,2031.08,3467.12,3300.05,3591.99,350.20,342.15,8.58,0000 0000 0000 0000 000000
2015-06-23 10:20:05,0.06,0.03,0.00,25.67,29.07,31.42,4.69,25.58,1008.83,2031.05,3466.36,3299.55,3591.27,350.18,342.12,8.61,0000 0000 0000 0000 000000
2015-06-23 10:25:06,0.01,0.03,0.00,25.67,29.08,31.44,4.69,25.61,1008.80,2031.01,3466.00,3299.02,3590.89,350.77,342.57,8.64,0000 0000 0000 0000 000000
2015-06-23 10:30:08,0.01,0.03,0.00,25.67,29.10,31.45,4.69,25.57,1008.80,2031.01,3465.96,3299.00,3590.42,350.37,342.35,8.67,0000 0000 0000 0000 000000
2015-06-23 10:35:09,0.02,0.03,0.00,25.69,29.11,31.47,4.72,25.60,1008.76,2031.00,3465.52,3299.00,3590.08,350.44,342.25,8.70,0000 0000 0000 0000 000000
2015-06-23 10:40:10,0.01,0.03,0.00,25.68,29.12,31.48,4.74,25.79,1008.79,2031.00,3465.08,3298.96,3590.00,350.33,342.44,8.73,0000 0000 0000 0000 000000
2015-06-23 10:45:11,0.01,0.03,0.00,25.70,29.14,31.49,4.71,25.47,1008.80,2031.00,3465.02,3298.72,3589.99,350.99,342.67,8.76,0000 0000 0000 0000 000000
2015-06-23 10:50:13,0.02,0.03,0.00,25.70,29.15,31.51,4.72,25.69,1008.80,2030.99,3465.00,3298.29,3589.96,350.18,342.09,8.79,0000 0000 0000 0000 000000
2015-06-23 10:55:14,0.02,0.04,0.00,25.70,29.16,31.53,4.65,25.64,1008.77,2030.97,3464.99,3298.02,3589.57,349.68,341.59,8.82,0000 0000 0000 0000 000000
2015-06-23 11:00:16,0.01,0.04,0.00,25.70,29.17,31.53,4.68,25.61,1008.63,2030.98,3464.95,3298.01,3589.20,349.84,341.67,8.84,0000 0000 0000 0000 000000
2015-06-23 11:05:17,-0.01,0.04,0.00,25.70,29.18,31.54,4.73,25.50,1008.64,2030.87,3464.60,3298.00,3589.02,350.80,342.69,8.87,0000 0000 0000 0000 000000
2015-06-23 11:10:18,0.01,0.04,0.00,25.70,29.20,31.55,4.69,25.52,1008.59,2030.84,3464.08,3297.99,3589.00,350.07,341.93,8.90,0000 0000 0000 0000 000000
2015-06-23 11:15:20,-0.03,0.04,0.00,25.71,29.20,31.57,4.67,25.59,1008.52,2030.71,3464.02,3297.85,3588.98,349.73,341.53,8.93,0000 0000 0000 0000 000000
2015-06-23 11:20:21,0.01,0.04,0.00,25.71,29.22,31.58,4.65,25.60,1008.41,2030.60,3463.99,3297.65,3588.97,349.97,341.95,8.96,0000 0000 0000 0000 000000
2015-06-23 11:25:22,0.02,0.04,0.00,25.71,29.22,31.60,4.74,25.57,1008.57,2030.58,3463.99,3297.33,3588.87,350.17,341.97,8.99,0000 0000 0000 0000 000000
2015-06-23 11:30:24,-0.03,0.03,0.00,25.70,29.24,31.60,4.67,25.59,1008.48,2030.33,3463.96,3297.13,3588.42,350.09,341.82,9.02,0000 0000 0000 0000 000000
2015-06-23 11:35:25,0.03,0.03,0.00,25.70,29.25,31.61,4.68,25.66,1008.75,2030.24,3463.51,3297.01,3588.08,350.41,342.30,9.05,0000 0000 0000 0000 000000
2015-06-23 11:40:26,0.03,0.04,0.00,25.70,29.25,31.62,4.62,25.68,1008.62,2030.33,3462.88,3296.94,3588.01,349.84,341.72,9.08,0000 0000 0000 0000 000000
2015-06-23 11:45:27,0.05,0.04,0.00,25.70,29.27,31.64,4.74,25.63,1008.65,2030.22,3462.13,3296.20,3587.25,349.87,341.75,9.11,0000 0000 0000 0000 000000
2015-06-23 11:50:29,0.12,0.04,0.00,25.70,29.27,31.64,4.66,25.57,1008.76,2030.25,3460.84,3295.51,3586.52,349.60,341.50,9.14,0000 0000 0000 0000 000000
2015-06-23 11:55:30,0.11,0.04,0.00,25.70,29.27,31.65,4.70,25.65,1008.78,2030.31,3459.35,3294.37,3585.34,350.28,342.17,9.17,0000 0000 0000 0000 000000
2015-06-23 12:00:31,0.06,0.05,0.00,25.70,29.29,31.65,4.67,25.67,1008.80,2030.19,3458.17,3293.50,3584.43,350.50,342.32,9.20,0000 0000 0000 0000 000000
2015-06-23 12:05:32,0.02,0.05,0.00,25.70,29.30,31.66,4.74,25.86,1008.80,2030.04,3457.22,3292.88,3583.77,350.33,342.22,9.23,0000 0000 0000 0000 000000
2015-06-23 12:10:33,0.05,0.05,0.00,25.70,29.30,31.68,4.72,25.70,1008.80,2030.01,3456.84,3292.17,3583.05,350.25,341.99,9.26,0000 0000 0000 0000 000000
2015-06-23 12:15:35,0.01,0.05,0.00,25.69,29.30,31.67,4.74,25.68,1008.81,2030.03,3456.32,3292.03,3583.01,349.92,341.62,9.28,0000 0000 0000 0000 000000
2015-06-23 12:20:36,0.02,0.05,0.00,25.67,29.30,31.68,4.65,25.58,1008.80,2030.01,3455.92,3291.92,3582.82,349.91,341.82,9.31,0000 0000 0000 0000 000000
2015-06-23 12:25:38,0.07,0.05,0.00,25.67,29.32,31.69,4.71,25.64,1008.80,2030.00,3455.09,3291.12,3582.04,350.21,342.09,9.34,0000 0000 0000 0000 000000
2015-06-23 12:30:39,0.08,0.05,0.00,25.67,29.32,31.71,4.73,25.52,1008.80,2030.02,3454.22,3290.58,3581.49,350.76,342.50,9.37,0000 0000 0000 0000 000000
2015-06-23 12:35:40,0.04,0.06,0.00,25.66,29.32,31.71,4.72,25.64,1008.80,2030.00,3453.28,3290.01,3580.96,350.08,341.82,9.40,0000 0000 0000 0000 000000
2015-06-23 12:40:41,0.08,0.06,0.00,25.65,29.32,31.70,4.65,25.66,1008.80,2030.01,3452.44,3289.33,3580.17,349.87,342.10,9.43,0000 0000 0000 0000 000000
2015-06-23 12:45:43,0.06,0.06,0.00,25.65,29.32,31.72,4.63,25.60,1008.81,2030.00,3451.71,3288.78,3579.65,349.62,341.72,9.46,0000 0000 0000 0000 000000
2015-06-23 12:50:44,0.12,0.06,0.00,25.65,29.32,31.70,4.69,25.64,1008.80,2030.00,3450.18,3287.69,3578.40,349.67,341.64,9.49,0000 0000 0000 0000 000000
2015-06-23 12:55:45,0.18,0.07,0.00,25.64,29.32,31.71,4.68,25.61,1008.81,2030.00,3447.79,3286.06,3576.70,349.79,341.74,9.52,0000 0000 0000 0000 000000
2015-06-23 13:00:47,0.15,0.07,0.00,25.62,29.32,31.73,4.68,25.60,1008.82,2030.00,3445.48,3284.47,3575.08,349.87,342.19,9.55,0000 0000 0000 0000 000000
2015-06-23 13:05:48,0.07,0.08,0.00,25.62,29.32,31.74,4.64,25.66,1008.82,2030.00,3444.28,3283.74,3574.10,349.66,341.66,9.58,0000 0000 0000 0000 000000